[[{"header":{"parameterUnit":"m.s-1","parameterCategory":1,"la1":30.2991,"la2":30.254,"lo1":-89.0895,"lo2":-89.0444,"dy":0.0017,"dx":0.0017,"nx":28,"ny":28,"refTime":"2024-10-07T03:00:00:Z","depth":0,"parameterNumber":2,"parameterNumberName":"U-component_of_WINDS"},"data":[0,0,0,0,0,0,0,0,0,0,0,0,0,0,0,0,0,0,0,0,0,0,0,0,0,0,0,0,0,0,0,0,0,0,0,0,0,0,0,0,0,0,0,0,0,0,0,0,0,0,0,0,0,0,0,0,0,0,-1.5043,-1.5044,0,-1.511,-1.5111,-1.5111,-1.5072,-1.507,-1.5068,-1.5067,-1.5136,-1.5139,-1.5143,0,0,0,0,0,0,0,0,0,0,0,0,0,-1.4883,-1.4886,-1.5043,-1.5044,-1.5045,-1.511,-1.5111,-1.5112,-1.5073,-1.507,-1.5068,-1.5066,-1.5135,-1.5139,-1.5143,0,0,0,0,0,0,0,0,0,0,0,0,0,-1.4952,-1.4887,-1.5043,-1.5033,-1.5033,-1.511,-1.5111,-1.5112,-1.5073,-1.507,-1.5067,-1.5065,-1.5133,-1.5138,-1.5144,-1.5234,0,0,-1.516,-1.5163,0,0,0,0,0,0,0,0,-1.4948,-1.4958,-1.5034,-1.5034,-1.5034,-1.508,-1.5079,-1.5153,-1.5074,-1.5058,-1.5067,-1.5063,-1.512,-1.5126,-1.5145,-1.5237,-1.524,-1.5161,-1.5164,-1.5166,-1.5168,0,0,0,0,0,0,0,-1.4943,-1.4954,-1.507,-1.5035,-1.5035,-1.5026,-1.5032,-1.5093,-1.5104,-1.5059,-1.5056,-1.5065,-1.5119,-1.5139,-1.5146,-1.5241,-1.5161,-1.5165,-1.5169,-1.5171,-1.5411,-1.5414,0,0,0,0,0,0,-1.4939,-1.4951,-1.5068,-1.5072,-1.4983,-1.5031,-1.5038,-1.5068,-1.5103,-1.5106,-1.5067,-1.5063,-1.5132,-1.514,-1.5148,-1.5257,-1.5166,-1.5171,-1.5174,-1.5408,-1.5412,-1.5415,0,0,0,0,0,0,-1.4936,-1.495,-1.5065,-1.5011,-1.5024,-1.5037,-1.507,-1.5071,-1.5091,-1.5109,-1.5111,-1.5086,-1.513,-1.5141,-1.5213,-1.5259,-1.5174,-1.5179,-1.5404,-1.5409,-1.5413,-1.5475,0,0,0,0,0,0,-1.4931,-1.4949,-1.4983,-1.5012,-1.5027,-1.5129,-1.5073,-1.5074,-1.5101,-1.5095,-1.5127,-1.513,-1.5128,-1.5205,-1.5218,-1.5265,-1.5183,-1.54,-1.5406,-1.5412,-1.5469,-1.5481,-1.5492,0,0,0,0,0,-1.4926,-1.4998,-1.4985,-1.5,-1.5071,-1.5131,-1.5141,-1.5137,-1.5104,-1.5139,-1.5151,-1.5129,-1.5251,-1.5213,-1.5227,-1.5276,-1.5397,-1.5405,-1.5412,-1.5464,-1.5479,-1.5491,0,0,0,0,0,0,-1.4976,-1.5002,-1.4988,-1.5071,-1.5099,-1.5125,-1.5169,-1.5153,-1.5191,-1.5185,-1.5178,-1.5186,-1.5262,-1.5275,-1.5232,-1.5365,-1.5319,-1.533,-1.5354,-1.5368,-1.5379,-1.5376,-1.5187,0,0,0,0,0,-1.4996,-1.5043,-1.5063,-1.5135,-1.515,-1.5157,-1.5183,-1.5178,-1.5207,-1.5218,-1.5235,-1.5264,-1.5309,-1.5339,-1.5381,-1.5469,-1.5477,-1.551,-1.5521,-1.5531,-1.5541,-1.5589,-1.5605,-1.5438,-1.5438,-1.5438,0,0,-1.5039,-1.5059,-1.509,-1.5145,-1.5167,-1.5216,-1.5167,-1.5221,-1.5258,-1.5227,-1.5297,-1.5309,-1.5341,-1.5422,-1.5459,-1.5436,-1.5587,-1.554,-1.5547,-1.5552,-1.5598,-1.5614,-1.5628,-1.5443,-1.5442,-1.5442,0,0,-1.5144,-1.5163,-1.5226,-1.5248,-1.528,-1.5284,-1.5299,-1.5326,-1.5334,-1.5403,-1.5381,-1.5424,-1.5501,-1.5525,-1.5548,-1.566,-1.5642,-1.5673,-1.5734,-1.5781,-1.5795,-1.5806,-1.5848,-1.5863,-1.5683,-1.5683,-1.5683,0,-1.5194,-1.5267,-1.526,-1.5316,-1.5341,-1.5314,-1.5378,-1.5399,-1.5444,-1.5462,-1.5436,-1.5532,-1.5552,-1.5639,-1.5666,-1.5684,-1.5702,-1.5671,-1.5793,-1.5805,-1.5815,-1.5855,-1.5871,-1.5687,-1.5686,-1.5686,-1.5685,0,-1.5328,-1.5379,-1.5425,-1.5469,-1.5499,-1.5559,-1.5561,-1.5592,-1.5583,-1.559,-1.5661,-1.5683,-1.573,-1.5749,-1.5741,-1.5835,-1.582,-1.5793,-1.5748,-1.5835,-1.5872,-1.5887,-1.5692,-1.5691,-1.569,-1.5689,0,0,-1.5469,-1.5506,-1.5524,-1.5543,-1.5576,-1.5616,-1.5673,-1.5718,-1.5746,-1.5777,-1.5826,-1.5891,-1.5867,-1.5892,-1.5886,-1.5927,-1.6016,-1.5896,-1.5896,-1.5919,-1.6122,-1.6144,-1.6161,-1.6003,-1.6006,-1.6008,-1.612,0,-1.5577,-1.5678,-1.5673,-1.5768,-1.5815,-1.5789,-1.584,-1.5865,-1.5873,-1.5914,-1.5921,-1.5969,-1.5932,-1.5947,-1.5986,-1.5997,-1.6057,-1.5989,-1.605,-1.6052,-1.6046,-1.6181,-1.6204,-1.6308,-1.6134,-1.6137,-1.6138,0,-1.5718,-1.5753,-1.5853,-1.5879,-1.5899,-1.5944,-1.5985,-1.6024,-1.6052,-1.6055,-1.6082,-1.607,-1.6128,-1.6078,-1.6159,-1.6113,-1.6137,-1.6146,-1.615,-1.6157,-1.6103,-1.6194,-1.6341,-1.6358,-1.6161,-1.6159,-1.6158,0,-1.5813,-1.5885,-1.5955,-1.5972,-1.6003,-1.6036,-1.605,-1.6076,-1.6103,-1.6138,-1.6156,-1.6197,-1.6221,-1.6253,-1.6252,-1.6216,-1.6334,-1.6284,-1.6339,-1.6339,-1.6368,-1.6367,-1.6524,-1.6379,-1.6379,-1.6379,-1.6378,0,-1.5936,-1.5999,-1.5998,-1.6041,-1.611,-1.6103,-1.6171,-1.6182,-1.6205,-1.625,-1.6229,-1.6271,-1.6265,-1.6308,-1.6307,-1.6375,-1.6385,-1.6389,-1.6389,-1.6393,-1.6393,-1.6411,-1.6404,-1.6383,-1.6382,-1.6381,-1.638,0,-1.6055,-1.6057,-1.6131,-1.6154,-1.6161,-1.6212,-1.6231,-1.6272,-1.6276,-1.6333,-1.6346,-1.6354,-1.6403,-1.6404,-1.646,-1.6459,-1.6543,-1.6532,-1.6533,-1.6532,-1.6588,-1.6583,-1.6764,-1.6788,-1.6626,-1.6627,-1.6629,0,-1.6135,-1.6183,-1.621,-1.6239,-1.6255,-1.6301,-1.6329,-1.6322,-1.6352,-1.6387,-1.6424,-1.647,-1.6508,-1.6587,-1.6598,-1.6641,-1.6633,-1.6693,-1.6639,-1.6642,-1.6636,-1.6634,-1.664,-1.6705,-1.6706,-1.6708,-1.6709,0,-1.6277,-1.6275,-1.6316,-1.6357,-1.6391,-1.6422,-1.6452,-1.6476,-1.6473,-1.6507,-1.6557,-1.6586,-1.6642,-1.669,-1.6731,-1.6745,-1.6728,-1.6725,-1.674,-1.6746,-1.6746,-1.6749,-1.6565,-1.6722,-1.6721,-1.672,-1.6719,-1.6718,-1.6381,-1.6422,-1.6448,-1.6494,-1.6515,-1.6543,-1.6583,-1.6592,-1.6633,-1.6679,-1.6672,-1.6727,-1.6754,-1.6807,-1.6825,-1.6868,-1.6848,-1.6869,-1.6875,-1.6881,-1.6888,-1.6737,-1.6875,-1.6875,-1.6875,-1.6874,-1.6874,0,-1.6524,-1.6539,-1.6581,-1.6623,-1.6659,-1.6636,-1.6668,-1.67,-1.6749,-1.6774,-1.6811,-1.6868,-1.6913,-1.6927,-1.6971,-1.7003,-1.6996,-1.7015,-1.7014,-1.7018,-1.6903,-1.6887,-1.702,-1.702,-1.702,-1.702,-1.702,-1.702,-1.6603,-1.6672,-1.6673,-1.6752,-1.6766,-1.6821,-1.6841,-1.6866,-1.6887,-1.6951,-1.6989,-1.6997,-1.7017,-1.7062,-1.7103,-1.7105,-1.7123,-1.7146,-1.7146,-1.704,-1.7025,-1.7012,-1.6996,-1.715,-1.715,-1.7257,-1.7258,-1.7258]},{"header":{"parameterUnit":"m.s-1","parameterCategory":1,"la1":30.2991,"la2":30.254,"lo1":-89.0895,"lo2":-89.0444,"dy":0.0017,"dx":0.0017,"nx":28,"ny":28,"refTime":"2024-10-07T03:00:00:Z","depth":0,"parameterNumber":3,"parameterNumberName":"V-component_of_WINDS"},"data":[0,0,0,0,0,0,0,0,0,0,0,0,0,0,0,0,0,0,0,0,0,0,0,0,0,0,0,0,0,0,0,0,0,0,0,0,0,0,0,0,0,0,0,0,0,0,0,0,0,0,0,0,0,0,0,0,0,0,-6.0457,-6.0458,0,-6.0535,-6.0535,-6.0536,-6.0444,-6.044,-6.0437,-6.0434,-6.0508,-6.0513,-6.0518,0,0,0,0,0,0,0,0,0,0,0,0,0,-6.0224,-6.0229,-6.0457,-6.0458,-6.0459,-6.0534,-6.0535,-6.0537,-6.0444,-6.044,-6.0436,-6.0432,-6.0506,-6.0512,-6.0519,0,0,0,0,0,0,0,0,0,0,0,0,0,-6.0316,-6.0231,-6.0457,-6.0422,-6.042,-6.0534,-6.0536,-6.0537,-6.0445,-6.044,-6.0435,-6.043,-6.0504,-6.0512,-6.0519,-6.067,0,0,-6.0543,-6.0546,0,0,0,0,0,0,0,0,-6.0311,-6.0325,-6.0427,-6.0425,-6.0423,-6.0474,-6.048,-6.0581,-6.0447,-6.0436,-6.0434,-6.0428,-6.0501,-6.0508,-6.0534,-6.0673,-6.0676,-6.0544,-6.0548,-6.0552,-6.0554,0,0,0,0,0,0,0,-6.0305,-6.0321,-6.0488,-6.0428,-6.0426,-6.0401,-6.0409,-6.0499,-6.0496,-6.0436,-6.043,-6.044,-6.0498,-6.0527,-6.0535,-6.0678,-6.0544,-6.055,-6.0555,-6.0558,-6.0943,-6.0948,0,0,0,0,0,0,-6.0303,-6.0316,-6.0485,-6.049,-6.0353,-6.041,-6.0418,-6.0463,-6.0495,-6.0495,-6.0445,-6.0436,-6.0516,-6.0526,-6.0537,-6.0715,-6.0552,-6.0559,-6.0563,-6.0938,-6.0944,-6.095,0,0,0,0,0,0,-6.0298,-6.0319,-6.0482,-6.0401,-6.042,-6.0419,-6.047,-6.0467,-6.0495,-6.0501,-6.0499,-6.0475,-6.0512,-6.0526,-6.0638,-6.0717,-6.0562,-6.057,-6.0931,-6.094,-6.0947,-6.1073,0,0,0,0,0,0,-6.0292,-6.0318,-6.0377,-6.0403,-6.0425,-6.0583,-6.0475,-6.0472,-6.0509,-6.0499,-6.0529,-6.0529,-6.0509,-6.0627,-6.0645,-6.0724,-6.0576,-6.0924,-6.0935,-6.0945,-6.1062,-6.1085,-6.1104,0,0,0,0,0,-6.0284,-6.0408,-6.038,-6.0401,-6.0498,-6.0588,-6.06,-6.0577,-6.0516,-6.0574,-6.0578,-6.0528,-6.0705,-6.0639,-6.0659,-6.0742,-6.0919,-6.0932,-6.0944,-6.1052,-6.108,-6.1104,0,0,0,0,0,0,-6.0388,-6.0411,-6.038,-6.0517,-6.0552,-6.0572,-6.0645,-6.0607,-6.0659,-6.0646,-6.0614,-6.0621,-6.074,-6.0751,-6.0678,-6.0888,-6.0801,-6.0819,-6.0877,-6.0903,-6.0924,-6.0919,-6.0582,0,0,0,0,0,-6.0428,-6.0501,-6.0515,-6.0634,-6.0653,-6.0647,-6.0685,-6.0664,-6.0698,-6.0712,-6.0723,-6.0757,-6.082,-6.0862,-6.092,-6.1062,-6.1067,-6.1129,-6.115,-6.1168,-6.1183,-6.1259,-6.1286,-6.0992,-6.0991,-6.0991,0,0,-6.0509,-6.053,-6.0578,-6.0656,-6.068,-6.0755,-6.0659,-6.0742,-6.0797,-6.0723,-6.083,-6.084,-6.0875,-6.1002,-6.1059,-6.1016,-6.1265,-6.1184,-6.1197,-6.1203,-6.1274,-6.1302,-6.1327,-6.1,-6.0998,-6.0997,0,0,-6.0695,-6.0719,-6.0821,-6.0847,-6.0886,-6.0881,-6.0905,-6.0932,-6.0936,-6.1043,-6.099,-6.1052,-6.1162,-6.1189,-6.1217,-6.1414,-6.1369,-6.1433,-6.1544,-6.1618,-6.1641,-6.1662,-6.1732,-6.1757,-6.1448,-6.1449,-6.1449,0,-6.0791,-6.0903,-6.0877,-6.0964,-6.1,-6.0938,-6.104,-6.1066,-6.1122,-6.1147,-6.1098,-6.1234,-6.1253,-6.1386,-6.1434,-6.1459,-6.1484,-6.143,-6.164,-6.166,-6.1679,-6.1745,-6.1772,-6.1456,-6.1455,-6.1454,-6.1454,0,-6.1018,-6.1097,-6.1174,-6.1231,-6.1275,-6.1369,-6.1355,-6.1402,-6.1377,-6.1377,-6.1485,-6.1506,-6.1568,-6.1597,-6.1573,-6.1727,-6.1699,-6.1646,-6.1558,-6.1715,-6.1777,-6.1802,-6.1467,-6.1464,-6.1462,-6.146,0,0,-6.1273,-6.1315,-6.1344,-6.1369,-6.1407,-6.1466,-6.1556,-6.1618,-6.1659,-6.1699,-6.1773,-6.1867,-6.1818,-6.185,-6.1828,-6.1893,-6.2047,-6.1832,-6.1832,-6.1871,-6.2217,-6.2257,-6.2287,-6.2017,-6.2022,-6.2026,-6.2214,0,-6.146,-6.162,-6.1599,-6.175,-6.1822,-6.1764,-6.1842,-6.1873,-6.1875,-6.1934,-6.1934,-6.2002,-6.1932,-6.1951,-6.2013,-6.2015,-6.2116,-6.2001,-6.2085,-6.2088,-6.2079,-6.2319,-6.2362,-6.2539,-6.2238,-6.2242,-6.2245,0,-6.17,-6.1751,-6.1911,-6.1938,-6.1967,-6.2038,-6.2093,-6.215,-6.2183,-6.2179,-6.2216,-6.2182,-6.227,-6.2181,-6.2302,-6.2224,-6.2257,-6.2263,-6.2269,-6.2277,-6.2177,-6.2334,-6.2595,-6.2622,-6.2283,-6.228,-6.2277,0,-6.1871,-6.1978,-6.2088,-6.2111,-6.2145,-6.2196,-6.2212,-6.2241,-6.2279,-6.2326,-6.235,-6.2406,-6.2437,-6.248,-6.2461,-6.2398,-6.2586,-6.2494,-6.2584,-6.2585,-6.2627,-6.2625,-6.2898,-6.2648,-6.2647,-6.2647,-6.2646,0,-6.2082,-6.2182,-6.2165,-6.2233,-6.2342,-6.2316,-6.2424,-6.2433,-6.2459,-6.2525,-6.2477,-6.2541,-6.2512,-6.2573,-6.2558,-6.2661,-6.2675,-6.2673,-6.2668,-6.2678,-6.2678,-6.2699,-6.2687,-6.2654,-6.2652,-6.2651,-6.265,0,-6.2292,-6.2284,-6.24,-6.2423,-6.2431,-6.2511,-6.2529,-6.2592,-6.2589,-6.2674,-6.2692,-6.2688,-6.2757,-6.2742,-6.2817,-6.2808,-6.2936,-6.2916,-6.2926,-6.2921,-6.3012,-6.3004,-6.3309,-6.3347,-6.3072,-6.3074,-6.3077,0,-6.2428,-6.2504,-6.2535,-6.2578,-6.2598,-6.2666,-6.2706,-6.2682,-6.2724,-6.2767,-6.2824,-6.2889,-6.294,-6.3052,-6.3055,-6.3112,-6.3092,-6.3195,-6.3101,-6.3108,-6.3094,-6.309,-6.3097,-6.3214,-6.3217,-6.322,-6.3222,0,-6.267,-6.2662,-6.2722,-6.2781,-6.2829,-6.2873,-6.2913,-6.2949,-6.2928,-6.2978,-6.3049,-6.3089,-6.3166,-6.3231,-6.3284,-6.3298,-6.3257,-6.3252,-6.3276,-6.3287,-6.329,-6.329,-6.2978,-6.3245,-6.3243,-6.3241,-6.324,-6.3239,-6.2847,-6.2912,-6.2944,-6.3012,-6.3039,-6.3077,-6.3137,-6.3142,-6.3202,-6.3264,-6.3246,-6.3326,-6.3356,-6.3423,-6.3443,-6.3504,-6.3466,-6.35,-6.3509,-6.3518,-6.3529,-6.328,-6.3514,-6.3513,-6.3512,-6.3512,-6.3511,0,-6.3087,-6.3105,-6.3168,-6.3225,-6.3278,-6.3236,-6.3277,-6.3323,-6.3396,-6.3428,-6.3479,-6.356,-6.3622,-6.363,-6.3688,-6.3736,-6.3718,-6.3752,-6.3748,-6.3752,-6.3561,-6.3534,-6.3765,-6.3765,-6.3765,-6.3765,-6.3765,-6.3765,-6.3218,-6.3326,-6.3322,-6.3442,-6.3458,-6.3538,-6.3565,-6.36,-6.3625,-6.3718,-6.3771,-6.3775,-6.3797,-6.3857,-6.3911,-6.3912,-6.3935,-6.3977,-6.397,-6.3791,-6.3766,-6.3742,-6.3717,-6.3982,-6.3982,-6.4156,-6.4158,-6.4159]}]]